Weather History for Billings, MT

Change the Weather History Date:

Thursday, May 8, 2014

  Actual Average Record
Temperature  
Mean Temperature 46 °F 53 °F  
Max Temperature 58 °F 65 °F 90 °F (1987)
Min Temperature 33 °F 41 °F 26 °F (2010)
Degree Days  
Heating Degree Days 19 12  
Month to date heating degree days 136 106  
Since 1 July heating degree days 6918 6483  
Cooling Degree Days 0 0  
Month to date cooling degree days 0 0  
Year to date cooling degree days 0 1  
Moisture  
Dew Point 32 °F    
Average Humidity 64    
Maximum Humidity 96    
Minimum Humidity 32    
Precipitation  
Precipitation 0.00 in 0.07 in 0.57 in (1986)
Month to date precipitation 0.72 0.51  
Year to date precipitation 6.30 4.19  
Snow  
Snow 0.00 in 0.10 in 2.60 in (1986)
Month to date snowfall 2.1 1.0  
Since 1 July snowfall 103.5 54.0  
Snow Depth 0.00 in    
Sea Level Pressure  
Sea Level Pressure 29.92 in    
Wind  
Wind Speed 6 mph (SSW)    
Max Wind Speed 15 mph    
Max Gust Speed 17 mph    
Visibility 10 miles    
Events Fog    
T = Trace of Precipitation, MM = Missing Value Source: NWS Daily Summary

Daily Weather History Graph

Daily Weather History Graph

Search for Another Location

Airport:

Trip Planner

Search our weather history database for the weather conditions in past years. The results will help you decide how hot, cold, wet, or windy it might be!

Date:

Astronomy

May. 08, 2014 Rise Set
Actual Time 5:51 AM MDT 8:30 PM MDT
Civil Twilight 5:17 AM MDT 9:04 PM MDT
Nautical Twilight 4:34 AM MDT 9:47 PM MDT
Astronomical Twilight 3:45 AM MDT 10:37 PM MDT
Moon 2:15 PM MDT (5/8) 2:44 AM MDT (5/8)
Length of Visible Light 15h 47m
Length of Day
14h 39m
Waxing Gibbous, 65% of the Moon is Illuminated
May 8
Waxing Gibbous
May 14
Full
May 21
Last Quarter
May 28
New
Jun 5
First Quarter

Hourly Weather History & Observations

Time (MDT) Temp. Windchill Dew Point Humidity Pressure Visibility Wind Dir Wind Speed Gust Speed Precip Events Conditions
12:53 AM 35.6 °F - 33.8 °F 93% 29.98 in 10.0 mi Calm Calm - N/A   Overcast
1:53 AM 36.0 °F - 32.0 °F 86% 30.04 in 10.0 mi Calm Calm - N/A   Overcast
2:17 AM 36.0 °F - 32.0 °F 86% 29.97 in 10.0 mi Calm Calm - N/A   Mostly Cloudy
2:53 AM 35.1 °F - 32.0 °F 89% 30.02 in 10.0 mi Calm Calm - N/A   Scattered Clouds
3:53 AM 33.1 °F - 30.9 °F 92% 30.02 in 10.0 mi Calm Calm - N/A Fog Partly Cloudy
4:26 AM 34.0 °F 29.8 °F 32.0 °F 92% 29.95 in 10.0 mi South 4.6 mph - N/A Fog Mostly Cloudy
4:53 AM 34.0 °F 29.8 °F 32.0 °F 92% 30.03 in 10.0 mi SW 4.6 mph - N/A Fog Patches of Fog
5:53 AM 34.0 °F - 30.9 °F 89% 30.02 in 10.0 mi Calm Calm - N/A Fog Patches of Fog
6:16 AM 34.0 °F 29.8 °F 30.9 °F 89% 29.96 in 10.0 mi SSW 4.6 mph - N/A   Partly Cloudy
6:53 AM 34.0 °F 28.0 °F 30.9 °F 89% 30.02 in 10.0 mi SW 6.9 mph - N/A   Partly Cloudy
7:50 AM 35.6 °F 30.7 °F 32.0 °F 87% 29.96 in 10.0 mi South 5.8 mph - N/A   Mostly Cloudy
7:53 AM 35.1 °F 31.0 °F 32.0 °F 89% 30.02 in 10.0 mi South 4.6 mph - N/A   Scattered Clouds
8:23 AM 36.0 °F 30.3 °F 33.1 °F 89% 29.96 in 10.0 mi SSW 6.9 mph - N/A   Mostly Cloudy
8:37 AM 36.0 °F 31.1 °F 32.0 °F 86% 29.96 in 10.0 mi South 5.8 mph - N/A   Scattered Clouds
8:53 AM 35.6 °F 29.2 °F 33.8 °F 93% 29.96 in 10.0 mi SW 8.1 mph - N/A   Scattered Clouds
9:53 AM 41.0 °F 34.3 °F 32.0 °F 70% 30.00 in 10.0 mi SSW 11.5 mph - N/A   Partly Cloudy
10:53 AM 44.1 °F 39.0 °F 33.1 °F 65% 29.98 in 10.0 mi SW 9.2 mph - N/A   Partly Cloudy
11:53 AM 46.4 °F 42.4 °F 33.8 °F 62% 29.91 in 10.0 mi South 8.1 mph - N/A   Partly Cloudy
12:53 PM 50.0 °F - 33.1 °F 52% 29.93 in 10.0 mi SSW 8.1 mph - N/A   Partly Cloudy
1:53 PM 51.1 °F - 32.0 °F 48% 29.90 in 10.0 mi Variable 6.9 mph - N/A   Scattered Clouds
2:53 PM 53.6 °F - 30.2 °F 41% 29.85 in 10.0 mi WNW 3.5 mph - N/A   Scattered Clouds
3:53 PM 55.0 °F - 27.0 °F 34% 29.85 in 10.0 mi WNW 8.1 mph - N/A   Scattered Clouds
4:53 PM 57.0 °F - 28.9 °F 34% 29.82 in 10.0 mi Variable 5.8 mph - N/A   Scattered Clouds
5:53 PM 57.0 °F - 30.0 °F 36% 29.81 in 10.0 mi SSW 6.9 mph - N/A   Scattered Clouds
6:53 PM 57.0 °F - 30.9 °F 37% 29.81 in 10.0 mi SSW 8.1 mph - N/A   Partly Cloudy
7:53 PM 55.0 °F - 32.0 °F 42% 29.80 in 10.0 mi SSW 8.1 mph - N/A   Partly Cloudy
8:53 PM 53.1 °F - 33.1 °F 47% 29.79 in 10.0 mi SSW 8.1 mph - N/A   Partly Cloudy
9:53 PM 50.0 °F - 34.0 °F 54% 29.79 in 10.0 mi South 4.6 mph - N/A   Partly Cloudy
10:53 PM 48.0 °F - 34.0 °F 58% 29.78 in 10.0 mi South 4.6 mph - N/A   Clear
11:53 PM 46.9 °F - 34.0 °F 61% 29.77 in 10.0 mi SW 6.9 mph - N/A   Partly Cloudy